Voltar ao catálogo

STARLINK-6198

AtivoComunicaçõesVLEO
NORAD 56768·PAYLOAD·🇺🇸 United States

Lançado May 31, 2023 de Vandenberg Space Force Base

Loading…

Próximas Passagens (próximas 24 horas)

TLE

AtualizadoSource: CelesTrak SupGP

Época: Sep 14, 2026, 21:57 UTC

1 56768C 23078B   26257.91506944  .00531370  00000+0  40886-1 0  2574
2 56768  70.0007 207.1964 0003038 267.3720  21.9669 15.01338334    13

Acompanhe STARLINK-6198 em tempo real com AllMySat

Download on the App Store